[[{"header":{"parameterUnit":"m.s-1","parameterCategory":1,"la1":30.2991,"la2":30.254,"lo1":-89.0895,"lo2":-89.0444,"dy":0.0017,"dx":0.0017,"nx":28,"ny":28,"refTime":"2024-02-20T03:00:00:Z","depth":0,"parameterNumber":2,"parameterNumberName":"U-component_of_WINDS"},"data":[0,0,0,0,0,0,0,0,0,0,0,0,0,0,0,0,0,0,0,0,0,0,0,0,0,0,0,0,0,0,0,0,0,0,0,0,0,0,0,0,0,0,0,0,0,0,0,0,0,0,0,0,0,0,0,0,0,0,1.5844,1.5844,0,1.5863,1.5864,1.5864,1.5814,1.5813,1.5811,1.581,1.5829,1.5831,1.5833,0,0,0,0,0,0,0,0,0,0,0,0,0,1.5762,1.5764,1.5844,1.5844,1.5844,1.5863,1.5864,1.5864,1.5814,1.5813,1.5811,1.5809,1.5828,1.583,1.5833,0,0,0,0,0,0,0,0,0,0,0,0,0,1.5791,1.5764,1.5844,1.5822,1.582,1.5863,1.5864,1.5864,1.5815,1.5812,1.581,1.5808,1.5827,1.583,1.5833,1.5898,0,0,1.5842,1.5843,0,0,0,0,0,0,0,0,1.579,1.5794,1.5825,1.5823,1.5822,1.5834,1.5842,1.5875,1.5815,1.5817,1.5809,1.5807,1.5832,1.5835,1.5843,1.5899,1.59,1.5842,1.5844,1.5845,1.5846,0,0,0,0,0,0,0,1.5788,1.5793,1.5852,1.5825,1.5823,1.5811,1.5812,1.5848,1.5837,1.5817,1.5813,1.5816,1.5831,1.5841,1.5844,1.59,1.5842,1.5845,1.5847,1.5848,1.6008,1.6011,0,0,0,0,0,0,1.5789,1.5792,1.5851,1.5852,1.58,1.5814,1.5816,1.5832,1.5837,1.5835,1.5818,1.5814,1.5837,1.584,1.5844,1.5919,1.5845,1.5848,1.585,1.6006,1.6009,1.6012,0,0,0,0,0,0,1.5787,1.5794,1.585,1.5821,1.5827,1.5818,1.5837,1.5834,1.5844,1.5838,1.5836,1.583,1.5835,1.584,1.5885,1.5919,1.5849,1.5852,1.6003,1.6007,1.601,1.607,0,0,0,0,0,0,1.5785,1.5794,1.5819,1.5822,1.5829,1.5891,1.5839,1.5836,1.5849,1.5843,1.5849,1.5847,1.5834,1.5881,1.5888,1.5922,1.5854,1.6,1.6005,1.6009,1.6065,1.6076,1.6085,0,0,0,0,0,1.5782,1.5835,1.5821,1.5828,1.586,1.5893,1.5897,1.5881,1.5852,1.5877,1.5873,1.5847,1.5915,1.5886,1.5893,1.5929,1.5997,1.6003,1.6009,1.6061,1.6074,1.6084,0,0,0,0,0,0,1.5836,1.5835,1.5819,1.5875,1.5884,1.5885,1.5915,1.5895,1.5913,1.5907,1.5885,1.5887,1.5935,1.5937,1.5905,1.5991,1.5951,1.5958,1.5988,1.6,1.601,1.6008,1.5857,0,0,0,0,0,1.5855,1.5882,1.588,1.5929,1.5935,1.5925,1.5938,1.5925,1.5934,1.5938,1.5937,1.5947,1.597,1.5985,1.6006,1.6066,1.6065,1.6094,1.6104,1.6112,1.6118,1.6148,1.616,1.603,1.603,1.603,0,0,1.5893,1.5896,1.5915,1.594,1.5946,1.5974,1.5928,1.596,1.5981,1.5942,1.5984,1.5984,1.5993,1.6046,1.6068,1.6048,1.6154,1.6119,1.6125,1.6127,1.6155,1.6167,1.6178,1.6034,1.6033,1.6033,0,0,1.5977,1.5983,1.6024,1.6031,1.604,1.6033,1.6043,1.6046,1.6045,1.6087,1.6058,1.6082,1.6123,1.613,1.6139,1.6226,1.6202,1.6233,1.6283,1.6313,1.6323,1.6332,1.6361,1.6372,1.624,1.624,1.624,0,1.6023,1.6065,1.6047,1.6081,1.6092,1.606,1.61,1.6108,1.6124,1.6132,1.611,1.616,1.6164,1.6216,1.6237,1.6246,1.6256,1.6232,1.6323,1.6332,1.634,1.6367,1.6378,1.6243,1.6243,1.6243,1.6242,0,1.612,1.615,1.6182,1.6198,1.6213,1.625,1.6238,1.6255,1.6241,1.6236,1.6278,1.6282,1.6302,1.6314,1.6301,1.6365,1.6352,1.6327,1.6285,1.6356,1.6381,1.6392,1.6249,1.6247,1.6246,1.6245,0,0,1.6237,1.6244,1.6255,1.6262,1.627,1.6292,1.6328,1.6348,1.6363,1.6375,1.6403,1.6439,1.6415,1.6426,1.6412,1.6439,1.6505,1.641,1.641,1.6426,1.6574,1.6591,1.6604,1.649,1.6492,1.6494,1.6572,0,1.6319,1.6379,1.6365,1.6425,1.6451,1.642,1.6451,1.6459,1.6455,1.6476,1.6472,1.6497,1.6465,1.6471,1.6496,1.6492,1.6534,1.6486,1.6515,1.6516,1.6511,1.6617,1.6636,1.671,1.6582,1.6584,1.6585,0,1.6421,1.6437,1.65,1.6503,1.6513,1.6541,1.6558,1.6579,1.6588,1.6583,1.6595,1.6576,1.661,1.6571,1.6617,1.6584,1.6595,1.6595,1.6598,1.6598,1.6553,1.6619,1.6734,1.6744,1.6601,1.66,1.6599,0,1.6498,1.6536,1.6577,1.6584,1.6589,1.6609,1.6613,1.6619,1.6632,1.6647,1.6654,1.6674,1.6683,1.6698,1.6685,1.6657,1.6732,1.6692,1.6728,1.6729,1.6744,1.6743,1.686,1.6755,1.6754,1.6754,1.6754,0,1.6589,1.6628,1.6612,1.6637,1.668,1.6663,1.6705,1.6705,1.671,1.6735,1.671,1.6733,1.6715,1.6737,1.6727,1.6766,1.6771,1.6767,1.6764,1.6768,1.6769,1.6774,1.6768,1.6757,1.6757,1.6756,1.6755,0,1.6681,1.6672,1.6715,1.6717,1.6718,1.6749,1.675,1.6774,1.6769,1.68,1.6806,1.6798,1.6822,1.681,1.6836,1.6829,1.6878,1.6869,1.6875,1.6872,1.6908,1.6905,1.7032,1.7047,1.6934,1.6935,1.6936,0,1.6738,1.6768,1.6773,1.6787,1.6792,1.6816,1.6829,1.6814,1.6828,1.684,1.6861,1.6883,1.69,1.694,1.6936,1.6955,1.6944,1.6988,1.6947,1.695,1.6942,1.694,1.6942,1.6995,1.6996,1.6997,1.6998,0,1.6841,1.6835,1.6855,1.6873,1.689,1.6903,1.6915,1.6928,1.6913,1.693,1.6955,1.6968,1.6994,1.7015,1.7032,1.7034,1.7013,1.7012,1.7021,1.7025,1.7026,1.7024,1.6896,1.7008,1.7007,1.7006,1.7006,1.7006,1.6916,1.694,1.6947,1.697,1.6977,1.6988,1.701,1.7008,1.7028,1.7047,1.7037,1.7065,1.7072,1.7092,1.7098,1.7119,1.7102,1.7115,1.7118,1.7122,1.7125,1.7025,1.7122,1.7122,1.7122,1.7121,1.7121,0,1.7015,1.7019,1.704,1.7057,1.7074,1.7055,1.7066,1.7082,1.7107,1.7116,1.7133,1.716,1.7181,1.7179,1.7198,1.7215,1.7206,1.7221,1.7218,1.7219,1.7141,1.713,1.7228,1.7228,1.7228,1.7228,1.7227,1.7227,1.7069,1.7108,1.7103,1.7145,1.7148,1.7176,1.7184,1.7194,1.72,1.7232,1.725,1.7248,1.7252,1.7271,1.7289,1.7288,1.7295,1.7313,1.7308,1.7235,1.7224,1.7214,1.7204,1.7315,1.7315,1.7384,1.7384,1.7385]},{"header":{"parameterUnit":"m.s-1","parameterCategory":1,"la1":30.2991,"la2":30.254,"lo1":-89.0895,"lo2":-89.0444,"dy":0.0017,"dx":0.0017,"nx":28,"ny":28,"refTime":"2024-02-20T03:00:00:Z","depth":0,"parameterNumber":3,"parameterNumberName":"V-component_of_WINDS"},"data":[0,0,0,0,0,0,0,0,0,0,0,0,0,0,0,0,0,0,0,0,0,0,0,0,0,0,0,0,0,0,0,0,0,0,0,0,0,0,0,0,0,0,0,0,0,0,0,0,0,0,0,0,0,0,0,0,0,0,1.8952,1.8951,0,1.8937,1.8936,1.8936,1.8887,1.8886,1.8885,1.8884,1.8869,1.887,1.887,0,0,0,0,0,0,0,0,0,0,0,0,0,1.8938,1.8938,1.8952,1.8951,1.8951,1.8937,1.8936,1.8936,1.8887,1.8886,1.8885,1.8883,1.8869,1.8869,1.887,0,0,0,0,0,0,0,0,0,0,0,0,0,1.8935,1.8939,1.8952,1.8925,1.8923,1.8937,1.8936,1.8936,1.8888,1.8886,1.8884,1.8883,1.8868,1.8869,1.887,1.8909,0,0,1.8873,1.8874,0,0,0,0,0,0,0,0,1.8936,1.8936,1.8929,1.8927,1.8924,1.8912,1.8926,1.8927,1.8888,1.8901,1.8884,1.8882,1.8885,1.8884,1.8885,1.8908,1.8908,1.8873,1.8874,1.8874,1.8875,0,0,0,0,0,0,0,1.8936,1.8936,1.8946,1.8929,1.8926,1.8914,1.8912,1.8926,1.8902,1.89,1.8896,1.8895,1.8883,1.8884,1.8884,1.8908,1.8873,1.8874,1.8875,1.8875,1.8961,1.8963,0,0,0,0,0,0,1.894,1.8937,1.8946,1.8945,1.8926,1.8915,1.8913,1.8918,1.8902,1.8898,1.8896,1.8893,1.8883,1.8883,1.8884,1.8927,1.8874,1.8875,1.8876,1.8959,1.8962,1.8963,0,0,0,0,0,0,1.894,1.8941,1.8947,1.894,1.894,1.8917,1.8923,1.8918,1.8919,1.8899,1.8895,1.8902,1.8882,1.8882,1.8903,1.8926,1.8876,1.8876,1.8957,1.896,1.8962,1.9015,0,0,0,0,0,0,1.894,1.8941,1.8956,1.8941,1.894,1.8967,1.8924,1.8919,1.8921,1.8916,1.8903,1.89,1.8881,1.8902,1.8904,1.8926,1.8877,1.8955,1.8959,1.8962,1.9011,1.9019,1.9026,0,0,0,0,0,1.8939,1.8972,1.8957,1.8958,1.8958,1.8968,1.8968,1.8945,1.8923,1.8937,1.8924,1.89,1.8923,1.8904,1.8906,1.8929,1.8954,1.8958,1.8961,1.9008,1.9018,1.9026,0,0,0,0,0,0,1.8991,1.8969,1.8953,1.8981,1.8977,1.896,1.8977,1.8956,1.8958,1.8953,1.8925,1.8923,1.8947,1.894,1.892,1.8966,1.8934,1.8939,1.8969,1.8978,1.8986,1.8987,1.8878,0,0,0,0,0,1.9006,1.9015,1.8996,1.9023,1.9022,1.9,1.9004,1.8986,1.8981,1.8978,1.8967,1.8962,1.8968,1.8973,1.8978,1.901,1.9006,1.9027,1.9035,1.9041,1.9045,1.9061,1.9069,1.8976,1.8976,1.8976,0,0,1.9036,1.9026,1.9034,1.9033,1.9028,1.9038,1.8999,1.9012,1.9019,1.898,1.8999,1.8991,1.8983,1.901,1.9021,1.9005,1.907,1.9046,1.9051,1.9051,1.9066,1.9074,1.9082,1.8979,1.8978,1.8978,0,0,1.9097,1.909,1.9112,1.9107,1.9099,1.9084,1.9089,1.9075,1.9068,1.9086,1.9057,1.9065,1.9076,1.9072,1.9072,1.913,1.9108,1.9132,1.9171,1.9187,1.9194,1.9201,1.9221,1.9228,1.9137,1.9137,1.9137,0,1.9136,1.9151,1.9125,1.914,1.914,1.9105,1.9127,1.9123,1.9117,1.9118,1.91,1.9113,1.9106,1.9131,1.9145,1.9146,1.915,1.9134,1.9195,1.9201,1.9207,1.9226,1.9233,1.914,1.9139,1.9139,1.9139,0,1.9199,1.9209,1.9227,1.9222,1.9224,1.9242,1.922,1.9225,1.9208,1.9195,1.9213,1.9204,1.9205,1.921,1.9193,1.9232,1.9222,1.92,1.9168,1.9219,1.9236,1.9243,1.9144,1.9143,1.9142,1.9141,0,0,1.9292,1.9271,1.9279,1.9275,1.9263,1.9271,1.9287,1.9288,1.9293,1.929,1.9303,1.9313,1.9292,1.9291,1.9274,1.9288,1.9334,1.9264,1.9263,1.9277,1.9375,1.9391,1.94,1.9319,1.932,1.9321,1.9375,0,1.9349,1.9375,1.9352,1.9383,1.9392,1.9358,1.9372,1.9366,1.9355,1.936,1.9347,1.9355,1.9327,1.9326,1.9339,1.9326,1.9353,1.9321,1.933,1.933,1.9332,1.9409,1.9427,1.9478,1.9382,1.9383,1.9384,0,1.9419,1.9418,1.945,1.9435,1.9438,1.9451,1.9449,1.9455,1.9448,1.9438,1.9437,1.9416,1.943,1.9399,1.9418,1.9397,1.9399,1.9393,1.9395,1.9394,1.936,1.941,1.9494,1.9502,1.9395,1.9394,1.9393,0,1.9483,1.949,1.9509,1.9507,1.9491,1.9501,1.9494,1.9485,1.9487,1.9486,1.9487,1.9488,1.9488,1.9489,1.9468,1.9448,1.949,1.9457,1.9482,1.9483,1.9492,1.9492,1.9577,1.9495,1.9495,1.9494,1.9494,0,1.9548,1.9569,1.9537,1.9549,1.9571,1.9544,1.9566,1.9557,1.9549,1.9558,1.9529,1.9538,1.951,1.9517,1.95,1.9518,1.9519,1.9511,1.9507,1.9514,1.9514,1.9514,1.951,1.9496,1.9496,1.9496,1.9495,0,1.9623,1.9603,1.9622,1.9604,1.9601,1.9617,1.9602,1.9612,1.9598,1.961,1.9611,1.959,1.9596,1.9575,1.9577,1.9566,1.9593,1.9582,1.9595,1.9592,1.9617,1.9615,1.9705,1.9715,1.9627,1.9628,1.9629,0,1.9666,1.9681,1.9665,1.9669,1.9664,1.967,1.9672,1.9647,1.9649,1.9641,1.9652,1.9656,1.9657,1.9668,1.9652,1.9654,1.9643,1.9674,1.9643,1.9649,1.9642,1.9641,1.9642,1.9681,1.9682,1.9683,1.9683,0,1.9744,1.9734,1.9737,1.9736,1.9738,1.9737,1.9734,1.9738,1.9711,1.9716,1.9721,1.9722,1.9724,1.9727,1.9726,1.9719,1.9697,1.9693,1.9699,1.9706,1.9712,1.9708,1.9612,1.9691,1.9691,1.969,1.969,1.9689,1.9804,1.9815,1.9805,1.9809,1.9804,1.9801,1.9809,1.9796,1.98,1.98,1.9785,1.9793,1.9784,1.9779,1.9775,1.9781,1.9766,1.9774,1.9776,1.9779,1.9783,1.9712,1.978,1.978,1.978,1.978,1.9779,0,1.988,1.9872,1.9876,1.9871,1.9875,1.9853,1.9848,1.9852,1.9859,1.9853,1.9855,1.986,1.9863,1.9848,1.9849,1.9857,1.9846,1.9858,1.9856,1.9855,1.9796,1.9791,1.9866,1.9866,1.9866,1.9866,1.9866,1.9866,1.992,1.9937,1.9925,1.9939,1.993,1.9938,1.9937,1.9934,1.9928,1.9936,1.9938,1.9928,1.9918,1.9918,1.9919,1.9915,1.9916,1.9931,1.9923,1.9868,1.9859,1.9851,1.9846,1.9931,1.9932,1.9981,1.9981,1.9982]}]]